Погода в Янгличах

Россия / Чувашская Республика     55°26′17″N   47°17′33″E
темп.,
°C
ветер,
м/с
пор.,
м/с
влажн.,
%
обл.,
%
осадки,
мм/ч
давл.,
гПа
погр.,
м
13 июня, вс
вс1300:00+15юв379741 0.0 1010131
03:00+14юв35965 0.0 101084
06:00+17ююв369093 0.0 1010196
09:00+22ю46725 0.1 1010804
12:00+24ю576211 0.7 10101493
15:00+22ююз477581 3.4 1010987
18:00+21ю59775 0.3 1010709
21:00+17ю4119468 1.4 1011242
14 июня, пн
пн1400:00+16ю3109599 0.2 1012215
03:00+15ю379678 0.2 1013145
06:00+18юз369011 0.0 1014240
09:00+22юз457414 0.1 1015890
12:00+24юз456640 1.0 10151275
15:00+23юз347287 4.1 1015730
18:00+22юз238064 1.8 1015227
21:00+18юз22874 1.8 101511
15 июня, вт
вт1500:00+17зсз11891 0.0 101511
03:00+16сз11903 0.0 101511
06:00+19ссз00855 0.0 1015107
09:00+23св117212 0.0 1014586
12:00+25ю116197 0.0 10131293
15:00+26ююв115744 0.0 10121239
18:00+25юз007099 0.3 1011150
21:00+20з0079100 0.4 101111
16 июня, ср
ср1600:00+18юз1189100 1.6 101111
03:00+18зюз008897 1.6 101011
06:00+20ююз228679 0.1 101099
09:00+23зюз337349 1.4 1010394
12:00+26з235887 0.0 10091237
15:00+24сз567092 0.6 1008636
18:00+22сз58809 1.1 1008582
21:00+17сз48935 1.8 1010165
17 июня, чт
чт1700:00+15ссз413915 0.0 1012374
03:00+12ссз39935 0.0 1014192
06:00+13ссз48840 0.0 1016273
09:00+17ссз57610 0.0 1017922
12:00+19ссз68514 0.0 10182071
15:00+20сз575217 0.0 10192049
18:00+18ссз4768100 0.0 1019349
21:00+15ссз22670 0.1 102141